logo tempoitalia

Diretta Meteo Tabuk, Arabia Sauditalunedì 31 agosto ore 08:00

Mappa
Sereno 24 °C Sereno 24 Ore: T.min 23 T.max 37
Ponente Nord/Nord-Est Km/h 7.4 Punto di rugiada: 11 °C Umidità: 43% Visibilità: 10 Km
Il sole sorge alle: 06:11 Il sole tramonta alle: 18:56
31 Agosto 2026 08:00 tempo osservato: Sereno Sereno 24 43 1013 vento: Nord N/NE 7.4
31 Agosto 2026 07:00 tempo osservato: Sereno Sereno 23 46 1013 vento: Nord N 7.4
31 Agosto 2026 06:00 tempo osservato: Sereno Sereno 24 43 1013 vento: Nord N 9.3
31 Agosto 2026 05:00 tempo osservato: Sereno Sereno 24 43 1012 vento: Nord N 11.1
31 Agosto 2026 04:00 tempo osservato: Sereno Sereno 25 41 1012 vento: Nord N 14.8
31 Agosto 2026 03:00 tempo osservato: Sereno Sereno 25 41 1012 vento: Nord N 16.7
31 Agosto 2026 02:00 tempo osservato: Sereno Sereno 26 39 1012 vento: Nord N 16.7
31 Agosto 2026 01:00 tempo osservato: Sereno Sereno 27 36 1012 vento: Nord N 18.5
31 Agosto 2026 00:00 tempo osservato: Sereno Sereno 28 30 1012 vento: Nord N 18.5
30 Agosto 2026 23:00 tempo osservato: Sereno Sereno 29 23 1012 vento: Nord N 18.5
30 Agosto 2026 22:00 tempo osservato: Sereno Sereno 30 16 1011 vento: Nord N 22.2
30 Agosto 2026 21:00 tempo osservato: Sereno Sereno 32 14 1010 vento: Nord NO 14.8
30 Agosto 2026 20:00 tempo osservato: Sereno Sereno 32 11 1009 vento: Nord O 11.1
30 Agosto 2026 19:00 tempo osservato: Sereno Sereno 34 10 1009 vento: Nord O 16.7
30 Agosto 2026 18:00 tempo osservato: Sereno Sereno 35 10 1008 vento: Nord O 20.3
30 Agosto 2026 17:00 tempo osservato: Sereno Sereno 36 13 1008 vento: Nord O/NO 16.7
30 Agosto 2026 16:00 tempo osservato: Sereno Sereno 37 12 1008 vento: Nord O 20.3
30 Agosto 2026 15:00 tempo osservato: Sereno Sereno 36 11 1008 vento: Nord O 20.3
30 Agosto 2026 14:00 tempo osservato: Sereno Sereno 36 15 1009 vento: Nord O 14.8
30 Agosto 2026 13:00 tempo osservato: Sereno Sereno 34 21 1010 vento: Nord O 13
30 Agosto 2026 12:00 tempo osservato: Sereno Sereno 32 25 1010 vento: Nord N 5.5
30 Agosto 2026 11:00 tempo osservato: Sereno Sereno 31 23 1011 vento: Nord O/NO 13
30 Agosto 2026 10:00 tempo osservato: Sereno Sereno 31 22 1011 vento: Nord N 5.5
30 Agosto 2026 09:00 tempo osservato: Sereno Sereno 30 25 1010 vento: Nord O 11.1